Location: St. Louis
(38.6270°N, 90.1994°W)
Time: 20:28:08
(UTC-06:00)

Vanguard 3 - Pass Details

Date: 04 December 2021
Orbit: 508 x 3260 km, 33.3° (Epoch: 19 January)

Event Time Altitude Azimuth Distance (km) Brightness Sun altitude
Exits shadow 04:35:55 27° 243° (WSW) 4,910 10.6 -28.0°
Maximum altitude 04:49:23 70° 169° (S) 3,156 10.0 -25.4°
Drops below altitude 10° 05:04:28 10° 90° (E) 4,828 12.2 -22.5°
Sets 05:07:35 0° 88° (E) 5,528 12.8 -21.9°
